ProjectID,Date,Electric Generation,Electric Utility Import,Facility Electric Load
,YYYY-MM-DD,kW,kW,kW
259,2015-05-01,0.0,,266.512125
259,2015-05-02,0.0,,408.17341666666675
259,2015-05-03,0.0,,365.73579166666667
259,2015-05-04,0.0,,418.38237499999997
259,2015-05-05,0.0,,299.487625
259,2015-05-06,8.63275,,171.59654166666667
259,2015-05-07,22.3265,,445.60170833333336
259,2015-05-08,21.651125000000004,,452.67712499999993
259,2015-05-09,14.748125,,305.0420416666667
259,2015-05-10,19.82866666666667,,418.50462500000003
259,2015-05-11,15.588458333333335,,329.07216666666665
259,2015-05-12,15.973000000000004,,335.318125
259,2015-05-13,15.609958333333333,,327.705625
259,2015-05-14,23.77066666666667,,496.5504166666667
259,2015-05-15,17.367416666666667,,361.9152083333333
259,2015-05-16,12.796333333333331,,270.0445416666666
259,2015-05-17,18.312583333333333,,391.1460833333333
259,2015-05-18,7.830666666666667,,161.87970833333335
259,2015-05-19,14.582416666666665,,305.7652083333333
259,2015-05-20,20.276416666666666,,421.73562499999997
259,2015-05-21,17.83625,,372.86924999999997
259,2015-05-22,22.421500000000005,,471.6330416666666
259,2015-05-23,25.676083333333334,,534.702
259,2015-05-24,22.529708333333332,,470.17637499999995
259,2015-05-25,20.910166666666665,,434.302375
259,2015-05-26,19.759208333333333,,408.27
259,2015-05-27,15.004583333333331,,309.5806666666666
259,2015-05-28,17.09775,,356.94325000000003
259,2015-05-29,23.30395833333333,,484.8304999999999
259,2015-05-30,20.731374999999996,,432.21466666666663
259,2015-05-31,8.833999999999998,,181.82241666666667
259,2015-06-01,3.332875,,78.068375
259,2015-06-02,6.0759583333333325,,126.10479166666667
259,2015-06-03,22.050291666666666,,461.2661666666666
259,2015-06-04,20.479499999999998,,426.9355416666667
259,2015-06-05,16.894583333333333,,350.67212499999994
259,2015-06-06,18.463458333333335,,385.2219166666667
259,2015-06-07,25.264458333333334,,528.3245000000001
259,2015-06-08,17.3745,,362.22162499999996
259,2015-06-09,15.259458333333335,,321.2666666666667
259,2015-06-10,22.9355,,482.20262500000007
259,2015-06-11,16.718499999999995,,350.7457083333333
259,2015-06-12,21.322208333333336,,291.4309583333333
259,2015-06-13,22.112958333333335,,354.12508333333335
259,2015-06-14,21.292166666666667,,448.3750416666667
259,2015-06-15,4.9610416666666675,,103.57904166666667
259,2015-06-16,10.572125000000002,,165.49758333333332
259,2015-06-17,19.962541666666667,,418.3689999999999
259,2015-06-18,10.188625,,212.50533333333334
259,2015-06-19,15.505875000000001,,324.0860833333333
259,2015-06-20,6.965166666666666,,144.38370833333332
259,2015-06-21,14.856125,,320.61199999999997
259,2015-06-22,24.148624999999996,,507.7404583333334
259,2015-06-23,14.7635,,308.32229166666673
259,2015-06-24,24.3415,,516.447375
259,2015-06-25,19.680166666666665,,412.29474999999996
259,2015-06-26,20.978041666666666,,439.71375
259,2015-06-27,6.577333333333332,,135.67249999999996
259,2015-06-28,8.323416666666665,,172.0620416666667
259,2015-06-29,17.786583333333336,,378.2217083333333
259,2015-06-30,17.85758333333333,,370.73604166666667
259,2015-07-01,19.283875,,405.572
259,2015-07-02,17.639333333333337,,368.19345833333335
259,2015-07-03,24.237791666666663,,512.3783333333333
259,2015-07-04,12.755541666666664,,268.49241666666666
259,2015-07-05,22.377583333333334,,472.19441666666665
259,2015-07-06,14.625291666666667,,309.49879166666665
259,2015-07-07,13.792958333333333,,292.2825416666667
259,2015-07-08,13.187333333333335,,278.3953333333333
259,2015-07-09,8.352833333333333,,176.15699999999998
259,2015-07-10,21.401708333333335,,475.83862500000004
259,2015-07-11,23.652041666666666,,504.5711666666667
259,2015-07-12,20.724291666666666,,440.9124583333333
259,2015-07-13,21.20929166666667,,448.00925000000007
259,2015-07-14,13.255041666666664,,180.85175
259,2015-07-15,12.977874999999997,,273.9889166666667
259,2015-07-16,14.902083333333332,,472.3204166666668
259,2015-07-17,19.612916666666663,,414.3595833333334
259,2015-07-18,14.882499999999999,,315.87333333333333
259,2015-07-19,22.052083333333332,,468.0895833333334
259,2015-07-20,21.336249999999996,,457.1091666666667
259,2015-07-21,15.721249999999998,,333.13666666666666
259,2015-07-22,23.278750000000002,,489.5633333333332
259,2015-07-23,22.214999999999993,,467.6720833333333
259,2015-07-24,22.755,,481.54541666666665
259,2015-07-25,20.215833333333332,,425.1870833333333
259,2015-07-26,13.176666666666668,,278.31125000000003
259,2015-07-27,14.612083333333333,,305.6495833333334
259,2015-07-28,20.485416666666666,,433.4795833333333
259,2015-07-29,19.625416666666666,,411.47249999999997
259,2015-07-30,10.239166666666664,,215.32166666666666
259,2015-07-31,22.949999999999992,,485.3383333333333
259,2015-08-01,18.10375,,381.79375
259,2015-08-02,22.461666666666662,,471.64666666666665
259,2015-08-03,19.657916666666665,,410.8258333333333
259,2015-08-04,22.05083333333333,,460.1854166666667
259,2015-08-05,18.46708333333333,,383.3325
259,2015-08-06,18.92208333333333,,390.0849999999999
259,2015-08-07,14.341666666666667,,352.0304166666667
259,2015-08-08,16.9975,,372.9816666666667
259,2015-08-09,21.785833333333333,,432.3525
259,2015-08-10,17.700416666666666,,348.43666666666667
259,2015-08-11,4.925416666666667,,104.23583333333333
259,2015-08-12,20.842916666666664,,441.52125000000007
259,2015-08-13,22.303750000000004,,446.1095833333334
259,2015-08-14,21.165416666666665,,431.9279166666666
259,2015-08-15,19.71875,,398.16125000000005
259,2015-08-16,18.638333333333332,,409.4708333333333
259,2015-08-17,19.187083333333334,,378.4816666666667
259,2015-08-18,16.903333333333332,,337.0120833333333
259,2015-08-19,17.969583333333336,,352.9241666666667
259,2015-08-20,19.045416666666664,,380.6558333333333
259,2015-08-21,18.899166666666666,,387.8304166666667
259,2015-08-22,20.61333333333333,,412.50708333333336
259,2015-08-23,15.504166666666665,,308.54875
259,2015-08-24,16.931666666666665,,340.0683333333334
259,2015-08-25,13.409583333333336,,266.7895833333333
259,2015-08-26,20.234166666666667,,402.97
259,2015-08-27,17.227083333333333,,341.19166666666666
259,2015-08-28,17.27,,354.5270833333333
259,2015-08-29,16.062916666666666,,340.88375
259,2015-08-30,14.062083333333335,,276.93916666666667
259,2015-08-31,8.592083333333333,,301.79291666666666
259,2015-09-01,17.370416666666667,,341.18041666666664
259,2015-09-02,0.0,,338.9854166666667
259,2015-09-03,0.0,,322.7633333333333
259,2015-09-04,0.0,,157.28458333333333
259,2015-09-05,19.746249999999996,,392.82916666666665
259,2015-09-06,18.672499999999996,,373.0825
259,2015-09-07,17.9425,,358.41458333333327
259,2015-09-08,15.379583333333336,,308.1925
259,2015-09-09,14.558749999999998,,287.05625000000003
259,2015-09-10,0.0,,66.28375
259,2015-09-11,13.180833333333334,,265.77625
259,2015-09-12,9.608749999999999,,191.60583333333332
259,2015-09-13,13.482499999999995,,267.7979166666667
259,2015-09-14,0.0,,345.45
259,2015-09-15,0.0,,350.2516666666666
259,2015-09-16,17.767916666666668,,355.5733333333334
259,2015-09-17,17.6375,,354.44
259,2015-09-18,0.0,,322.90708333333333
259,2015-09-19,0.0,,307.6233333333334
259,2015-09-20,16.73875,,332.3329166666667
259,2015-09-21,0.0,,284.155
259,2015-09-22,11.5625,,229.00625
259,2015-09-23,0.0,,333.78583333333336
259,2015-09-24,0.0,,324.4916666666667
259,2015-09-25,0.0,,269.9708333333333
259,2015-09-26,13.657083333333333,,270.92291666666665
259,2015-09-27,0.0,,284.68708333333336
259,2015-09-28,0.0,,166.29250000000002
259,2015-09-29,10.506666666666666,,209.11041666666665
259,2015-09-30,4.329166666666667,,87.64625000000001
259,2015-10-01,7.511666666666667,,149.49875000000003
259,2015-10-02,3.750833333333334,,74.42041666666667
259,2015-10-03,2.787083333333333,,54.98333333333332
259,2015-10-04,16.891666666666666,,336.5966666666667
259,2015-10-05,12.457083333333337,,252.9141666666667
259,2015-10-06,15.736666666666665,,314.13875
259,2015-10-07,13.863333333333335,,278.62166666666667
259,2015-10-08,11.055,,239.56625
259,2015-10-09,6.531250000000001,,54.025416666666665
259,2015-10-10,16.280833333333334,,304.41999999999996
259,2015-10-11,15.282083333333333,,287.74625000000003
259,2015-10-12,13.512916666666667,,59.89875000000001
259,2015-10-13,8.494583333333333,,177.63166666666666
259,2015-10-14,9.983333333333333,,210.12458333333333
259,2015-10-15,14.758333333333335,,311.8416666666667
259,2015-10-16,11.495,,240.34291666666667
259,2015-10-17,10.547916666666667,,222.8416666666667
259,2015-10-18,10.363750000000001,,217.56625
259,2015-10-19,14.699166666666668,,309.56458333333336
259,2015-10-20,12.931666666666665,,271.89458333333334
259,2015-10-21,12.158333333333333,,256.09666666666664
259,2015-10-22,10.145416666666666,,212.925
259,2015-10-23,14.293333333333331,,299.16791666666666
259,2015-10-24,8.095416666666667,,171.68791666666667
259,2015-10-25,5.802083333333333,,125.79125
259,2015-10-26,13.566250000000002,,287.56875
259,2015-10-27,8.555833333333334,,183.54125
259,2015-10-28,2.1437500000000003,,44.81791666666666
259,2015-10-29,8.935416666666667,,190.63958333333335
259,2015-10-30,12.918749999999998,,275.41749999999996
259,2015-10-31,11.817083333333334,,252.51416666666665
259,2015-11-01,3.3058333333333327,,70.16833333333332
259,2015-11-02,7.352916666666666,,158.02958333333333
259,2015-11-03,11.599166666666669,,246.87916666666666
259,2015-11-04,11.367083333333333,,242.11499999999998
259,2015-11-05,3.4808333333333334,,74.64500000000001
259,2015-11-06,4.9625,,106.0325
259,2015-11-07,3.9758333333333336,,85.25708333333334
259,2015-11-08,11.601666666666667,,247.07916666666668
259,2015-11-09,10.464166666666666,,223.88458333333332
259,2015-11-10,1.9058333333333335,,40.43375
259,2015-11-11,4.495833333333334,,96.36583333333334
259,2015-11-12,1.1737499999999998,,24.543333333333333
259,2015-11-13,7.938333333333335,,169.53166666666664
259,2015-11-14,10.880833333333333,,236.71291666666667
259,2015-11-15,10.566249999999998,,224.83
259,2015-11-16,9.88625,,210.3783333333333
259,2015-11-17,10.843333333333334,,229.3045833333333
259,2015-11-18,5.993333333333332,,126.92791666666666
259,2015-11-19,2.3195833333333336,,49.63916666666667
259,2015-11-20,9.893333333333333,,209.63666666666666
259,2015-11-21,10.226249999999999,,216.86416666666668
259,2015-11-22,3.8674999999999997,,82.82041666666666
259,2015-11-23,10.3575,,219.81666666666666
259,2015-11-24,8.407916666666665,,179.41166666666666
259,2015-11-25,9.83125,,209.04125
259,2015-11-26,7.343333333333333,,157.34541666666667
259,2015-11-27,8.413333333333334,,179.87083333333334
259,2015-11-28,2.34125,,50.13291666666667
259,2015-11-29,9.285833333333333,,196.50750000000002
259,2015-11-30,4.9870833333333335,,106.7025
259,2015-12-01,1.0916666666666666,,22.963749999999997
259,2015-12-02,1.0866666666666667,,22.609583333333333
259,2015-12-03,4.2299999999999995,,89.86083333333332
259,2015-12-04,8.997916666666667,,189.6508333333333
259,2015-12-05,8.728333333333333,,185.55375
259,2015-12-06,8.715833333333332,,185.53458333333336
259,2015-12-07,7.584166666666667,,160.78500000000003
259,2015-12-08,5.683750000000001,,120.5770833333333
259,2015-12-09,2.59875,,55.47708333333333
259,2015-12-10,7.127083333333334,,150.83833333333334
259,2015-12-11,5.670833333333334,,121.13083333333333
259,2015-12-12,5.08125,,107.98500000000001
259,2015-12-13,5.660416666666667,,120.53500000000001
259,2015-12-14,1.8187499999999999,,38.82916666666667
259,2015-12-15,8.222916666666668,,174.03083333333333
259,2015-12-16,8.900416666666667,,188.52958333333336
259,2015-12-17,0.6279166666666668,,12.770833333333332
259,2015-12-18,2.5495833333333335,,54.53208333333333
259,2015-12-19,6.849166666666668,,146.57333333333332
259,2015-12-20,8.420416666666666,,178.11375
259,2015-12-21,2.463333333333333,,47.24458333333334
259,2015-12-22,0.9125,,19.083750000000002
259,2015-12-23,1.18375,,25.15833333333333
259,2015-12-24,2.040833333333333,,45.32541666666667
259,2015-12-25,5.352083333333334,,114.55375
259,2015-12-26,2.642916666666667,,56.55458333333335
259,2015-12-27,2.488333333333333,,53.5425
259,2015-12-28,6.406666666666667,,137.37625
259,2015-12-29,0.5020833333333333,,15.459999999999999
259,2015-12-30,0.8708333333333335,,18.341666666666665
259,2015-12-31,3.268333333333334,,71.06750000000001
259,2016-01-01,2.51625,,54.446666666666665
259,2016-01-02,5.479166666666665,,117.80625
259,2016-01-03,7.062499999999997,,150.4458333333333
259,2016-01-04,9.421249999999999,,201.32041666666666
259,2016-01-05,9.704166666666666,,207.07375000000005
259,2016-01-06,9.237083333333333,,198.92833333333334
259,2016-01-07,7.213750000000001,,156.14291666666665
259,2016-01-08,5.6812499999999995,,123.09624999999998
259,2016-01-09,3.3554166666666667,,73.11166666666665
259,2016-01-10,1.5154166666666666,,37.54375
259,2016-01-11,9.83625,,211.91499999999996
259,2016-01-12,4.907500000000001,,106.15708333333333
259,2016-01-13,7.638333333333333,,164.29416666666668
259,2016-01-14,3.901666666666667,,84.67375
259,2016-01-15,5.916666666666668,,107.04291666666667
259,2016-01-16,5.091666666666667,,73.86541666666668
259,2016-01-17,2.1895833333333337,,31.33416666666667
259,2016-01-18,7.869166666666666,,104.70958333333333
259,2016-01-19,10.644583333333333,,152.22583333333333
259,2016-01-20,8.825416666666667,,151.71958333333333
259,2016-01-21,10.714166666666669,,229.68291666666667
259,2016-01-22,6.6741666666666655,,144.18
259,2016-01-23,0.025000000000000005,,0.038333333333333344
259,2016-01-24,0.0,,0.0
259,2016-01-25,0.01,,0.13374999999999998
259,2016-01-26,0.24916666666666665,,6.847083333333333
259,2016-01-27,7.030416666666667,,109.56208333333335
259,2016-01-28,10.56625,,155.02708333333334
259,2016-01-29,5.070416666666666,,72.97166666666666
259,2016-01-30,10.64625,,153.29500000000002
259,2016-01-31,10.108749999999999,,144.2925
259,2016-02-01,6.164999999999999,,88.4525
259,2016-02-02,11.56,,163.81958333333333
259,2016-02-03,0.7487499999999999,,10.266666666666667
259,2016-02-04,4.610833333333333,,100.09375
259,2016-02-05,0.12291666666666667,,2.3391666666666664
259,2016-02-06,0.6154166666666666,,18.4
259,2016-02-07,5.727083333333333,,146.85208333333335
259,2016-02-08,0.5204166666666666,,10.226666666666667
259,2016-02-09,0.49291666666666667,,9.582916666666666
259,2016-02-10,0.5608333333333333,,22.726666666666667
259,2016-02-11,2.945416666666667,,105.11625000000001
259,2016-02-12,5.21625,,135.42208333333335
259,2016-02-13,10.3225,,225.6166666666667
259,2016-02-14,12.515833333333335,,272.84541666666667
259,2016-02-15,2.0137499999999995,,43.02833333333333
259,2016-02-16,0.8916666666666667,,28.096249999999998
259,2016-02-17,3.5854166666666667,,77.69041666666668
259,2016-02-18,15.550833333333335,,334.83875
259,2016-02-19,11.023333333333335,,237.29375
259,2016-02-20,11.2725,,243.29125000000002
259,2016-02-21,7.782083333333333,,167.9225
259,2016-02-22,14.912083333333333,,321.65125
259,2016-02-23,2.907083333333334,,62.696250000000006
259,2016-02-24,1.4641666666666666,,31.75208333333333
259,2016-02-25,2.475833333333333,,76.29249999999999
259,2016-02-26,16.86625,,363.9241666666666
259,2016-02-27,15.750416666666666,,340.5804166666667
259,2016-02-28,15.530000000000001,,336.2191666666667
259,2016-02-29,6.824583333333332,,146.59041666666667
259,2016-03-01,15.822083333333332,,341.41333333333336
259,2016-03-02,15.674166666666665,,342.16
259,2016-03-03,16.23,,353.5591666666667
259,2016-03-04,8.089583333333334,,180.57916666666668
259,2016-03-05,13.64,,296.11583333333334
259,2016-03-06,17.075416666666666,,368.9883333333334
259,2016-03-07,16.094166666666663,,348.56708333333336
259,2016-03-08,12.605416666666668,,273.99625000000003
259,2016-03-09,16.303333333333335,,355.20625
259,2016-03-10,8.7075,,189.39083333333335
259,2016-03-11,14.83,,323.92125000000004
259,2016-03-12,17.613333333333333,,384.78166666666664
259,2016-03-13,9.54125,,208.49583333333337
259,2016-03-14,3.30625,,72.17125
259,2016-03-15,8.825416666666667,,192.54291666666666
259,2016-03-16,14.999583333333334,,326.1925
259,2016-03-17,12.285833333333331,,270.90208333333334
259,2016-03-18,13.699583333333331,,300.74291666666664
259,2016-03-19,16.450416666666666,,360.6816666666667
259,2016-03-20,11.637083333333335,,254.1304166666667
259,2016-03-21,13.636666666666668,,316.65125
259,2016-03-22,19.25916666666667,,422.56666666666666
259,2016-03-23,10.165416666666667,,223.47833333333335
259,2016-03-24,14.574166666666668,,317.03541666666666
259,2016-03-25,9.431666666666667,,205.55624999999998
259,2016-03-26,17.952499999999997,,390.7175
259,2016-03-27,15.297083333333333,,332.78666666666663
259,2016-03-28,5.226666666666667,,116.9975
259,2016-03-29,21.992083333333326,,482.2308333333333
259,2016-03-30,21.060000000000002,,463.72625
259,2016-03-31,14.16375,,311.1804166666667
259,2016-04-01,10.012083333333335,,220.09791666666666
259,2016-04-02,5.463333333333334,,119.8875
259,2016-04-03,13.982083333333335,,317.5241666666667
259,2016-04-04,2.486666666666667,,55.642916666666665
259,2016-04-05,23.849999999999994,,520.2966666666666
259,2016-04-06,17.150833333333335,,375.4120833333334
259,2016-04-07,6.296666666666666,,138.77291666666667
259,2016-04-08,8.8575,,194.78875
259,2016-04-09,8.692499999999999,,190.65666666666667
259,2016-04-10,23.002916666666668,,504.85958333333326
259,2016-04-11,9.977500000000001,,219.17875
259,2016-04-12,11.167916666666665,,246.8275
259,2016-04-13,23.454166666666676,,514.3508333333333
259,2016-04-14,23.24625,,510.2945833333333
259,2016-04-15,23.14,,508.43625
259,2016-04-16,23.156666666666666,,508.3583333333333
259,2016-04-17,22.343333333333334,,493.6875
259,2016-04-18,21.622083333333332,,477.87000000000006
259,2016-04-19,22.53708333333334,,494.69583333333327
259,2016-04-20,23.90583333333333,,525.2633333333333
259,2016-04-21,22.12541666666667,,489.7570833333334
259,2016-04-22,15.014583333333336,,330.66166666666663
259,2016-04-23,17.147083333333335,,375.9508333333333
259,2016-04-24,23.97166666666666,,527.94
259,2016-04-25,15.106249999999998,,333.40749999999997
259,2016-04-26,4.9470833333333335,,109.03124999999999
259,2016-04-27,23.820416666666663,,525.28625
259,2016-04-28,16.1875,,356.74666666666667
259,2016-04-29,13.264583333333336,,290.48208333333326
259,2016-04-30,20.576249999999998,,450.11
259,2016-05-01,4.0945833333333335,,89.85125000000001
259,2016-05-02,6.151666666666667,,135.97208333333336
259,2016-05-03,4.994583333333333,,108.63541666666667
259,2016-05-04,4.494583333333334,,98.83333333333334
259,2016-05-05,10.946666666666665,,239.92749999999995
259,2016-05-06,5.380833333333334,,116.29833333333333
259,2016-05-07,7.434583333333333,,163.81083333333333
259,2016-05-08,16.382916666666667,,362.07
259,2016-05-09,21.96291666666667,,483.46708333333333
259,2016-05-10,20.171250000000004,,444.67375000000004
259,2016-05-11,23.054583333333337,,509.8529166666667
259,2016-05-12,23.16541666666667,,509.8162499999999
259,2016-05-13,5.794999999999999,,126.46833333333332
259,2016-05-14,18.552916666666672,,407.39666666666676
259,2016-05-15,15.429583333333333,,340.6066666666666
259,2016-05-16,24.1275,,529.46
259,2016-05-17,12.759583333333332,,280.39124999999996
259,2016-05-18,17.99875,,392.6191666666667
259,2016-05-19,17.208333333333332,,372.5425
259,2016-05-20,23.28708333333334,,509.71458333333334
259,2016-05-21,10.031249999999998,,217.60708333333332
259,2016-05-22,16.363749999999996,,355.25166666666667
259,2016-05-23,17.921250000000004,,390.8970833333333
259,2016-05-24,10.280416666666666,,223.02416666666667
259,2016-05-25,23.11916666666667,,508.1075
259,2016-05-26,21.357916666666668,,471.45874999999995
259,2016-05-27,17.376250000000002,,380.54041666666666
259,2016-05-28,19.726666666666663,,436.6579166666666
259,2016-05-29,21.466666666666665,,470.3066666666667
259,2016-05-30,13.530000000000001,,295.69624999999996
259,2016-05-31,21.702083333333334,,477.93
259,2016-06-01,22.589999999999993,,494.37916666666666
259,2016-06-02,23.080416666666665,,502.15208333333334
259,2016-06-03,5.553333333333335,,120.70291666666667
259,2016-06-04,17.44,,385.67791666666665
259,2016-06-05,4.964166666666666,,107.78375000000001
259,2016-06-06,22.99749999999999,,506.8279166666666
259,2016-06-07,20.11125,,444.7270833333333
259,2016-06-08,14.972916666666665,,328.4820833333333
259,2016-06-09,25.43083333333333,,558.1979166666667
259,2016-06-10,25.350833333333338,,557.9720833333333
259,2016-06-11,15.121666666666668,,331.30916666666667
259,2016-06-12,18.914166666666663,,508.5725
259,2016-06-13,14.708750000000004,,473.1925
259,2016-06-14,17.14,,555.4008333333334
259,2016-06-15,16.194583333333338,,530.16875
259,2016-06-16,10.134583333333335,,265.5025
259,2016-06-17,19.100833333333334,,474.6695833333334
259,2016-06-18,15.706249999999997,,513.1791666666667
259,2016-06-19,15.081666666666665,,488.06
259,2016-06-20,15.001249999999999,,484.78625000000005
259,2016-06-21,15.418750000000003,,504.38958333333335
259,2016-06-22,15.481250000000001,,503.0454166666666
259,2016-06-23,10.647083333333335,,354.2366666666667
259,2016-06-24,15.119583333333336,,500.42875
259,2016-06-25,14.975416666666668,,496.1691666666667
259,2016-06-26,14.493333333333332,,477.1454166666667
259,2016-06-27,11.7275,,384.62375
259,2016-06-28,5.318333333333333,,174.91833333333332
259,2016-06-29,13.525833333333331,,450.71166666666664
259,2016-06-30,17.873333333333335,,501.3579166666667
259,2016-07-01,13.979999999999999,,310.38624999999996
259,2016-07-02,19.940416666666664,,446.94791666666663
259,2016-07-03,20.921250000000004,,466.02083333333337
259,2016-07-04,22.665416666666673,,508.52666666666664
259,2016-07-05,16.820000000000004,,372.1254166666667
259,2016-07-06,20.929583333333337,,470.94541666666674
259,2016-07-07,12.78125,,284.5754166666667
259,2016-07-08,16.23333333333333,,361.83833333333325
259,2016-07-09,6.265000000000001,,138.475
259,2016-07-10,15.31583333333333,,335.2908333333333
259,2016-07-11,20.90666666666667,,462.09749999999997
259,2016-07-12,21.27541666666667,,472.78458333333333
259,2016-07-13,20.107916666666668,,449.3662499999999
259,2016-07-14,11.562083333333334,,260.45500000000004
259,2016-07-15,18.59541666666667,,412.62041666666664
259,2016-07-16,17.295416666666664,,382.28291666666667
259,2016-07-17,20.68041666666667,,460.1216666666667
259,2016-07-18,16.645833333333336,,369.2966666666666
259,2016-07-19,21.73166666666667,,483.92333333333335
259,2016-07-20,23.41083333333333,,521.5350000000001
259,2016-07-21,21.855833333333337,,489.34250000000003
259,2016-07-22,20.19458333333333,,451.7891666666667
259,2016-07-23,21.29166666666666,,474.07583333333326
259,2016-07-24,21.80541666666667,,481.59208333333333
259,2016-07-25,15.341666666666667,,335.74333333333334
259,2016-07-26,21.32041666666667,,474.51166666666666
259,2016-07-27,22.39,,502.0191666666667
259,2016-07-28,18.246666666666666,,403.9070833333333
259,2016-07-29,15.55666666666667,,339.90625
259,2016-07-30,13.164166666666665,,286.51500000000004
259,2016-07-31,8.054583333333333,,172.66333333333333
259,2016-08-01,9.69125,,211.0066666666667
259,2016-08-02,13.631666666666666,,293.5020833333333
259,2016-08-03,22.625,,481.9445833333333
259,2016-08-04,20.395833333333336,,436.02541666666673
259,2016-08-05,20.188750000000002,,434.8379166666667
259,2016-08-06,15.268749999999997,,326.58875
259,2016-08-07,21.22791666666667,,449.3695833333333
259,2016-08-08,19.297083333333333,,409.9179166666667
259,2016-08-09,19.371666666666666,,413.09999999999997
259,2016-08-10,9.084583333333335,,190.92541666666668
259,2016-08-11,17.330833333333334,,373.515
259,2016-08-12,15.084166666666667,,323.94416666666666
259,2016-08-13,18.762083333333333,,399.1383333333334
259,2016-08-14,18.767500000000002,,402.61500000000007
259,2016-08-15,18.809166666666666,,390.735
259,2016-08-16,14.410833333333336,,303.51166666666666